Regional Weather Roundup
Issued by NWS Green Bay, WI

Home | Current Version | Previous Version | Graphics & Text | Print | Product List | Glossary Off
Versions: 1 2 3 4 5 6 7 8 9 10 11 12 13 14 15 16 17 18 19 20 21 22 23 24 25 26 27 28 29 30 31 32 33 34 35 36 37 38 39 40 41 42 43 44 45 46 47 48 49 50

000
ASUS43 KGRB 040500
RWRGRB

NORTH-CENTRAL AND NORTHEAST WISCONSIN REGIONAL WEATHER ROUNDUP
NATIONAL WEATHER SERVICE GREEN BAY WI
1200 AM CDT WED MAY 04 2016

WIZ005-009-010>012-018-019-040600-
NORTH CENTRAL WISCONSIN

CITY           SKY/WX    TMP DP  RH WIND       PRES   REMARKS
IRONWOOD         N/A     43  37  81 NE7       29.81R
MANITOWISH WTR NOT AVBL
ARBOR VITAE    NOT AVBL
EAGLE RIVER    NOT AVBL
LAND O LAKES   NOT AVBL
RHINELANDER    CLEAR     42  38  85 N6        29.75R
PHILLIPS       NOT AVBL
ANTIGO         NOT AVBL
TOMAHAWK       NOT AVBL
MERRILL        FOG       39  39 100 CALM      29.74R VSB 1/4
$$

WIZ013-073-040600-
NORTHEAST WISCONSIN

CITY           SKY/WX    TMP DP  RH WIND       PRES   REMARKS
IRON MOUNTAIN  PTCLDY    42  35  76 N17       29.72S
MARINETTE      CLOUDY    46  43  87 N6        29.72R
$$

WIZ017-030-035>037-045-040600-
CENTRAL WISCONSIN

CITY           SKY/WX    TMP DP  RH WIND       PRES   REMARKS
MEDFORD        NOT AVBL
WAUSAU         CLEAR     45  43  93 N6        29.71R
MOSINEE        NOT AVBL
MARSHFIELD     CLEAR     46  43  89 N5        29.72R
WISC RAPIDS    FOG       43  41  93 N6        29.73R VSB 1/4
STEVENS POINT  NOT AVBL
WAUPACA        NOT AVBL
SHAWANO        NOT AVBL
CLINTONVILLE   NOT AVBL
WAUTOMA        CLOUDY    47  45  93 CALM      29.70R
$$

WIZ038-039-048-051-040600-
FOX VALLEY

CITY           SKY/WX    TMP DP  RH WIND       PRES   REMARKS
NWS GREEN BAY  LGT RAIN  47  44  90 N8        29.69R
APPLETON       NOT AVBL
OSHKOSH        CLOUDY    48  46  93 NW5       29.68S
FOND DU LAC    CLOUDY    47  46  97 NW6       29.66F
$$

WIZ022-050-052-040600-
EAST CENTRAL WISCONSIN

CITY           SKY/WX    TMP DP  RH WIND       PRES   REMARKS
EPHRAIM        NOT AVBL
STURGEON BAY   CLOUDY    46  39  76 N10       29.72R
MANITOWOC      NOT AVBL
SHEBOYGAN      CLOUDY    48  45  89 NE9       29.66F
$$

LMZ563-521-522-541>543-040600-
LAKESHORE

STATION/POSITION TIME  TEMP    WIND        PRES    VSBY  WAVE
                       AIR SEA DIR/SP/G                  HT/PER
                 (UTC) (F)     (DEG/KT/KT) (MB)    (MI)  (FT/S)
SHEBOYGAN LKSHOR 0400   46     350/ 14/ 15 1005.5R
KEWAUNEE LKSHORE 0400   49     330/  3/  3 1004.3F
ALGOMA MARINA    0415             CALM       N/A
NORTHPORT PIER   0400   44     340/  9/ 11 1005.4
N MID LAKE BUOY  0350   42 39  250/  2/  4 1004.9R         2/ 5
CHAMBERS ISLAND  0400   44     330/  6/  8 1005.8S
MENOMINEE LKSHOR 0400   48     350/ 11/ 12 1004.5R
$$




USA.gov is the U.S. government's official web portal to all federal, state and local government web resources and services.